Regional Weather Roundup
Issued by NWS

Home | Current Version | Previous Version | Graphics & Text | Print | Product List | Glossary On
Versions: 1 2 3 4 5 6 7 8 9 10 11 12 13 14 15 16 17 18 19 20 21 22 23 24 25 26 27 28 29 30 31 32 33 34 35 36 37 38 39 40 41 42 43 44 45 46 47 48 49 50
000
ASUS43 KFSD 101202
RWRSD

WEATHER ROUNDUP FOR SOUTH DAKOTA
NATIONAL WEATHER SERVICE SIOUX FALLS SD
600 AM CST SAT DEC 10 2016

NOTE: "FAIR" INDICATES FEW OR NO CLOUDS BELOW 12,000 FEET WITH NO
SIGNIFICANT WEATHER AND/OR OBSTRUCTIONS TO VISIBILITY.


SDZ001>005-009-010-012>017-101300-
NORTHWEST AND NORTH CENTRAL SOUTH DAKOTA

CITY           SKY/WX    TMP DP  RH WIND       PRES   REMARKS
BUFFALO          N/A      0  -5  79 SE12      30.00F WCI -17
FAITH            N/A      0  -3  87 SE12      30.21F WCI -17
MOBRIDGE       CLOUDY    -5 -12  72 E13       30.31F WCI -24
$$

SDZ012>016-024>037-041>051-057-063-072>074-101300-
SOUTHWEST AND SOUTH CENTRAL SOUTH DAKOTA

CITY           SKY/WX    TMP DP  RH WIND       PRES   REMARKS
RAPID CTY ARPT CLOUDY     1  -3  83 SE10      30.06F WCI -15
PIERRE         LGT SNOW  -1  -6  79 E9        30.31F WCI -16
CUSTER         CLOUDY     4   0  83 CALM      29.83F
ELLSWORTH AFB  CLOUDY     2  -1  84 SE14      30.03F WCI -16
PHILIP         FLURRIES   1  -3  83 E12       30.24S WCI -16
PINE RIDGE     CLOUDY     5   1  83 E6        30.03F WCI  -6
SPEARFISH      CLOUDY     3   0  85 N5        29.97F WCI  -6
WINNER         LGT SNOW   6   1  80 E14       30.26F WCI -11
$$

SDZ004>011-016>023-039-040-101300-
NORTHEAST SOUTH DAKOTA

CITY           SKY/WX    TMP DP  RH WIND       PRES   REMARKS
ABERDEEN       CLOUDY    -5 -14  65 NE7       30.46F WCI -19
WATERTOWN      CLOUDY     0  -4  83 NE3       30.39F
SISSETON         N/A     -7 -13  75 N8        30.49S WCI -23
$$

SDZ017-020-022-023-036>040-048>070-101300-
SOUTHEAST SOUTH DAKOTA

CITY           SKY/WX    TMP DP  RH WIND       PRES   REMARKS
SIOUX FALLS    LGT SNOW  11   7  84 E9        30.40F FOG     WCI  -2
HURON          LGT SNOW   1  -2  87 CALM      30.43F FOG
CHAMBERLAIN    LGT SNOW   7   3  84 E7        30.33F WCI  -5
MITCHELL       LGT SNOW   8   4  83 NE6       30.41F FOG     WCI  -2
YANKTON        MOCLDY    12   7  79 CALM      30.39F
$$

ABBREVIATIONS USED IN REMARKS
   TC - TEMPERATURE IN CELSIUS
  WCI - WIND CHILL INDEX
   HX - HEAT INDEX
  VSB - VISIBILITY





USA.gov is the U.S. government's official web portal to all federal, state and local government web resources and services.